{"data":{"norad_id":48772,"intl_designator":"2021-045F","name":"ONEWEB-0242","alt_names":[],"object_type":"PAYLOAD","status":"ACTIVE","operator":null,"country":"UK","launch_date":"2021-05-28","launch_site_code":"VOSTO","launch_vehicle":null,"mission":null,"orbit_class":"UNKNOWN","rcs_meters":null,"size_class":null,"mass_kg":null,"dimensions":null,"purposes":["comms"],"wikipedia_slug":null,"has_3d_model":false,"image_url":null,"decayed_at":null,"tle_current":{"epoch":"2026-09-19T17:41:40.821792Z","epoch_age_seconds":84119,"freshness":"FRESH","line1":"1 48772U 21045F   26262.73727803 -.00000078  00000+0 -24255-3 0  9992","line2":"2 48772  87.8994 240.3424 0002119  80.2373 279.8997 13.15548422256852","mean_motion":13.15548422,"eccentricity":0.0002119,"inclination_deg":87.8994,"raan_deg":240.3424,"arg_perigee_deg":80.2373,"mean_anomaly_deg":279.8997,"bstar":-0.00024255,"rev_number":25685,"period_min":109.4600530029,"perigee_km":1200.1650765738,"apogee_km":1203.377441694,"semimajor_km":7579.9082591339,"source":"CELESTRAK","updated_at":"2026-09-20T09:00:44.615903Z"}}}